GW0140 Weather Reports


Display with metric or nautical units.
time (UTC)temp
F
wind
direction
speed
MPH
gust
MPH
rain 1hr
in
rain 24hr
in
rain mn
in
humidity
%
barometer
mb
20260510104029 52 36 17.0 22.0 0.00 0.00 0.00 76 1017.1
20260510103019 52 37 16.0 22.0 0.00 0.00 0.00 77 1017.1
20260510101951 52 41 14.0 21.0 0.00 0.00 0.00 78 1017.3
20260510100959 52 34 15.0 24.0 0.00 0.00 0.00 77 1017.3
20260510095947 53 34 16.0 24.0 0.00 0.00 0.00 77 1017.3
20260510094942 53 28 13.0 19.0 0.00 0.00 0.00 75 1017.5
20260510093917 53 57 15.0 22.0 0.00 0.00 0.00 77 1017.4
20260510092938 53 56 16.0 22.0 0.00 0.00 0.00 76 1017.5
20260510090857 52 53 15.0 22.0 0.00 0.00 0.00 78 1017.7
20260510085909 52 30 15.0 20.0 0.00 0.00 0.00 79 1017.7
20260510084844 52 34 16.0 22.0 0.00 0.00 0.00 79 1017.7
20260510083831 53 63 14.0 23.0 0.00 0.00 0.00 78 1017.7
20260510082820 53 22 16.0 23.0 0.00 0.00 0.00 78 1017.7
20260510080711 53 40 13.0 21.0 0.00 0.00 0.00 80 1017.6
20260510075720 53 42 14.0 19.0 0.00 0.00 0.00 79 1017.6
20260510073552 52 61 15.0 21.0 0.00 0.00 0.00 82 1017.6
20260510072616 52 55 15.0 21.0 0.00 0.00 0.00 82 1017.6
20260510071546 52 55 13.0 20.0 0.00 0.00 0.00 83 1017.7
20260510070610 52 49 11.0 20.0 0.00 0.00 0.00 84 1017.8
20260510064445 51 38 12.0 17.0 0.00 0.00 0.00 85 1017.7
20260510063508 51 34 13.0 20.0 0.00 0.00 0.00 86 1017.6
20260510062523 51 38 13.0 20.0 0.00 0.00 0.00 86 1017.5
20260510061514 51 49 13.0 18.0 0.00 0.00 0.00 86 1017.4
20260510060457 51 57 12.0 18.0 0.00 0.00 0.00 86 1017.2
20260510055433 50 18 11.0 17.0 0.00 0.00 0.00 86 1017.2
20260510053321 50 26 10.0 17.0 0.00 0.00 0.00 87 1017.2
20260510050032 50 19 11.0 17.0 0.00 0.00 0.00 87 1017.1
20260510045026 50 42 11.0 16.0 0.00 0.00 0.00 88 1017.2
20260510044027 50 39 11.0 16.0 0.00 0.00 0.00 88 1017.3
20260510042956 50 30 10.0 15.0 0.00 0.00 0.00 88 1017.4
20260510041952 50 22 10.0 14.0 0.00 0.00 0.00 88 1017.4
20260510040926 49 34 10.0 15.0 0.00 0.00 0.00 88 1017.4
20260510035914 49 31 10.0 15.0 0.00 0.00 0.00 89 1017.6
20260510034937 49 34 9.0 15.0 0.00 0.00 0.00 90 1017.7
20260510031610 49 31 10.0 16.0 0.00 0.00 0.00 90 1017.6
20260510030547 49 44 10.0 15.0 0.00 0.00 0.00 90 1017.6
20260510025551 49 25 9.0 15.0 0.00 0.00 0.00 90 1017.6
20260510024541 49 34 7.0 12.0 0.00 0.00 0.00 90 1017.6
20260510023531 49 20 9.0 15.0 0.00 0.00 0.00 90 1017.7
20260510022505 49 27 9.0 15.0 0.00 0.00 0.00 91 1017.8
20260510020403 49 24 8.0 13.0 0.00 0.00 0.00 91 1018.0
20260510015405 49 41 8.0 13.0 0.00 0.00 0.00 91 1018.0
20260510014331 49 16 5.0 11.0 0.00 0.00 0.00 91 1018.0
20260510013320 49 27 6.0 11.0 0.00 0.00 0.00 91 1017.8
20260510012315 49 18 6.0 10.0 0.00 0.00 0.00 91 1017.6
20260510011325 49 25 6.0 10.0 0.00 0.00 0.00 91 1017.6
20260510010308 49 20 6.0 11.0 0.00 0.00 0.00 91 1017.7
20260510005248 49 25 6.0 11.0 0.00 0.00 0.00 90 1017.8
20260510004226 49 5 6.0 11.0 0.00 0.00 0.00 90 1017.9
20260510003200 50 17 6.0 11.0 0.00 0.00 0.00 90 1017.9
20260510002153 50 42 5.0 10.0 0.00 0.00 0.00 90 1018.1
20260510001152 50 38 7.0 10.0 0.00 0.00 0.00 89 1018.1
20260510000133 50 29 5.0 10.0 0.00 0.00 0.00 89 1017.9
20260509235117 50 18 6.0 10.0 0.00 0.00 0.00 89 1018.1
20260509234058 50 44 5.0 10.0 0.00 0.00 0.00 89 1018.0
20260509233111 50 34 6.0 10.0 0.00 0.00 0.00 88 1018.1
20260509232117 51 38 6.0 9.0 0.00 0.00 0.00 88 1018.0
20260509231108 51 30 6.0 10.0 0.00 0.00 0.00 88 1018.0
20260509230120 51 31 8.0 11.0 0.00 0.00 0.00 87 1018.0
20260509225114 51 32 6.0 11.0 0.00 0.00 0.00 86 1018.2
20260509224116 51 35 7.0 13.0 0.00 0.00 0.00 85 1018.1
20260509223053 52 47 8.0 13.0 0.00 0.00 0.00 84 1018.0
20260509222048 52 42 6.0 10.0 0.00 0.00 0.00 84 1017.9
20260509221016 52 53 6.0 10.0 0.00 0.00 0.00 84 1018.1
20260509220016 52 51 6.0 10.0 0.00 0.00 0.00 83 1018.0
20260509215027 52 44 6.0 9.0 0.00 0.00 0.00 82 1017.9
20260509212829 54 54 5.0 8.0 0.00 0.00 0.00 81 1018.0
20260509211855 54 63 4.0 6.0 0.00 0.00 0.00 80 1018.0
20260509205751 54 48 4.0 8.0 0.00 0.00 0.00 80 1017.9
20260509204731 55 65 7.0 10.0 0.00 0.00 0.00 79 1017.8
20260509203730 55 74 8.0 11.0 0.00 0.00 0.00 77 1017.7
20260509202701 55 82 7.0 11.0 0.00 0.00 0.00 75 1017.6
20260509201704 56 77 6.0 10.0 0.00 0.00 0.00 73 1017.5
20260509200709 57 67 7.0 10.0 0.00 0.00 0.00 70 1017.4
20260509195650 57 79 7.0 10.0 0.00 0.00 0.00 68 1017.6
20260509194658 57 84 8.0 10.0 0.00 0.00 0.00 67 1017.5
20260509193625 58 78 9.0 11.0 0.00 0.00 0.00 63 1017.4
20260509191527 59 82 11.0 13.0 0.00 0.00 0.00 60 1017.1
20260509190508 59 74 11.0 13.0 0.00 0.00 0.00 60 1017.3
20260509185451 60 91 10.0 14.0 0.00 0.00 0.00 61 1017.3
20260509183330 61 84 10.0 12.0 0.00 0.00 0.00 55 1017.0
20260509182309 61 84 10.0 16.0 0.00 0.00 0.00 54 1016.9
20260509181251 61 85 11.0 16.0 0.00 0.00 0.00 53 1016.7
20260509180313 60 103 10.0 15.0 0.00 0.00 0.00 70 1016.7
20260509175249 60 97 11.0 15.0 0.00 0.00 0.00 69 1016.8
20260509173111 60 98 10.0 13.0 0.00 0.00 0.00 62 1017.0
20260509171007 60 111 12.0 16.0 0.00 0.00 0.00 57 1017.1
20260509170012 60 108 12.0 16.0 0.00 0.00 0.00 58 1017.0
20260509163849 60 113 12.0 19.0 0.00 0.00 0.00 59 1017.3
20260509162855 60 103 12.0 15.0 0.00 0.00 0.00 52 1017.3
20260509161825 61 115 11.0 15.0 0.00 0.00 0.00 52 1017.4
20260509160829 61 105 11.0 16.0 0.00 0.00 0.00 54 1017.4
20260509155842 61 119 11.0 16.0 0.00 0.00 0.00 56 1017.3
20260509153746 62 113 11.0 16.0 0.00 0.00 0.00 53 1017.0
20260509151636 61 104 11.0 19.0 0.00 0.00 0.00 58 1016.9
20260509145447 61 111 14.0 19.0 0.00 0.00 0.00 61 1016.6
20260509144442 61 93 13.0 19.0 0.00 0.00 0.00 61 1016.8
20260509143412 61 128 13.0 19.0 0.00 0.00 0.00 55 1016.9
20260509142336 61 115 15.0 19.0 0.00 0.00 0.00 54 1016.9
20260509141335 61 94 14.0 21.0 0.00 0.00 0.00 54 1017.0
20260509140340 61 109 15.0 21.0 0.00 0.00 0.00 52 1017.0
20260509135330 61 113 15.0 21.0 0.00 0.00 0.00 54 1017.1
20260509134345 61 108 14.0 21.0 0.00 0.00 0.00 57 1017.2
20260509133336 61 108 13.0 17.0 0.00 0.00 0.00 55 1017.4
20260509132306 61 121 12.0 17.0 0.00 0.00 0.00 55 1017.6
20260509130133 61 117 13.0 18.0 0.00 0.00 0.00 58 1017.6
20260509125122 61 108 13.0 17.0 0.00 0.00 0.00 56 1017.6
20260509124105 61 94 13.0 18.0 0.00 0.00 0.00 58 1017.6
20260509123122 61 111 15.0 18.0 0.00 0.00 0.00 60 1017.6
20260509122109 61 101 15.0 18.0 0.00 0.00 0.00 58 1017.7
20260509121106 61 96 14.0 18.0 0.00 0.00 0.00 61 1017.8
20260509114931 62 99 12.0 15.0 0.00 0.00 0.00 56 1017.8
20260509113937 62 103 11.0 15.0 0.00 0.00 0.00 53 1017.9
20260509112910 63 102 10.0 15.0 0.00 0.00 0.00 49 1018.0
20260509111911 62 113 11.0 15.0 0.00 0.00 0.00 50 1018.0
20260509110909 62 101 10.0 15.0 0.00 0.00 0.00 53 1018.0
20260509105840 63 96 9.0 15.0 0.00 0.00 0.00 52 1018.1
20260509104826 62 111 10.0 13.0 0.00 0.00 0.00 55 1018.1